CAPE
0 0 0 0 0 0 0 0 0 0 0 0 0 0 0 0 0 0 0 0 0 0 0 0 17 1 29 49 92 452 519 161 500 198 209 507 930 1852 1558 2010 1863 1592 1266 886
0 0 0 0 0 0 0 0 0 0 0 0 0 0 0 0 0 0 0 0 0 0 0 14 0 0 47 140 89 114 192 291 285 58 167 599 209 288 501 1456 1821 1844 1760 1251
0 0 0 0 0 0 0 0 0 0 0 0 0 0 0 0 0 0 0 0 0 0 0 9 0 0 30 44 32 25 12 13 67 146 15 28 17 12 41 24 64 1833 2417 1113
0 0 0 0 0 0 0 0 0 0 2 2 3 2 0 0 1 8 0 0 0 0 0 9 2 1 13 1 12 7 11 1 0 168 58 58 48 18 5 0 40 302 2337 2185
0 0 0 0 0 0 0 0 0 0 2 7 0 22 0 0 0 0 6 4 0 0 0 0 0 0 0 0 0 59 14 6 7 54 27 108 147 135 29 23 15 58 827 1417
0 0 0 0 0 0 0 0 2 1 7 34 0 37 0 2 28 18 44 0 0 0 0 0 0 0 0 0 0 44 25 259 280 199 74 15 216 117 87 29 87 77 70 131
3 3 1 0 0 1 1 6 26 43 93 89 30 73 104 41 0 0 12 0 0 0 0 1 16 23 22 12 30 32 34 241 519 314 351 179 158 225 177 98 70 1 0 208
4 6 4 9 7 4 12 34 79 19 114 144 111 17 4 2 9 1 0 2 0 0 0 1 18 55 41 57 72 36 24 359 306 302 244 373 304 182 108 82 59 30 2 0
16 4 7 15 9 28 45 94 45 141 89 71 92 17 46 115 76 14 0 0 0 0 0 0 9 5 26 47 202 327 185 211 262 101 112 332 271 321 57 103 146 122 150 51
0 1 0 0 8 17 31 31 63 180 88 148 23 64 104 118 110 4 0 0 0 0 0 0 34 50 62 22 120 449 312 173 76 176 202 0 44 168 128 163 86 43 48 89
6 22 3 8 21 52 82 137 81 73 208 220 151 23 147 119 108 8 70 0 6 4 1 2 21 57 56 38 28 190 208 120 102 146 149 173 27 0 29 16 48 99 132 118
24 36 38 32 41 29 68 84 128 265 107 115 166 42 154 34 60 125 75 2 12 10 0 8 29 43 33 22 43 87 396 140 131 83 36 45 154 82 81 47 51 155 161 191
20 22 58 37 46 80 16 0 4 13 73 170 337 76 133 306 37 0 15 0 32 114 28 8 15 39 34 36 73 61 112 109 80 51 47 102 57 48 89 108 49 58 56 109
1 10 60 102 30 100 21 40 10 1 20 211 178 96 66 237 124 26 3 1 0 289 179 100 88 43 85 98 93 80 98 123 114 81 70 88 49 4 0 97 162 85 54 2
3 48 86 91 86 88 77 74 81 40 45 186 135 45 61 152 240 284 22 14 176 102 174 181 111 202 234 270 327 229 170 139 125 179 89 145 71 11 0 1 1 17 25 20
16 39 64 40 69 83 65 44 36 28 74 195 76 31 39 104 175 98 127 159 227 183 133 270 171 138 176 326 337 315 292 347 285 173 133 82 8 0 0 16 1 0 0 30
1 2 32 30 36 49 9 73 79 68 129 137 151 143 225 90 110 150 91 124 127 165 208 103 68 126 381 351 346 336 455 356 310 300 151 76 50 10 0 0 0 0 0 1
0 12 47 68 50 22 4 57 87 122 142 163 58 180 54 49 103 112 124 193 186 58 64 35 110 257 297 342 301 238 171 369 300 264 171 78 39 24 4 2 15 2 0 0
6 27 62 50 66 5 1 74 78 46 0 90 132 45 15 44 50 97 63 72 15 14 6 16 42 87 97 59 14 45 54 53 106 99 63 76 88 23 23 32 24 21 0 0
31 1 64 65 23 14 198 28 47 56 239 51 70 41 54 15 21 6 39 2 1 25 21 0 0 1 1 49 105 60 27 17 102 63 59 66 66 47 40 43 12 6 0 0
71 9 2 29 45 14 137 169 138 70 117 99 4 31 57 44 46 43 26 33 23 16 10 6 6 23 18 38 23 0 0 0 10 73 68 63 79 76 64 25 27 19 11 18
70 76 97 76 84 65 24 48 65 73 59 21 26 27 10 37 26 34 60 50 37 34 15 9 3 4 14 12 0 0 0 0 24 13 7 13 35 69 71 71 15 5 33 33
83 72 211 93 131 306 119 19 32 7 10 7 11 5 21 28 4 51 63 53 35 23 0 0 18 31 17 2 0 0 4 26 43 15 1 7 16 16 16 27 6 18 39 31
30 28 35 34 45 8 0 0 0 1 5 3 6 47 30 31 28 19 24 15 0 9 9 21 15 6 3 10 6 19 32 13 31 31 4 9 16 0 10 21 22 8 49 15
38 41 11 0 0 0 0 0 6 9 9 24 4 4 3 6 14 19 22 24 24 13 7 9 2 0 0 0 0 0 2 4 8 30 10 18 5 3 6 7 3 37 118 450
5 20 23 27 9 15 5 8 4 20 33 38 30 36 17 22 20 21 17 24 14 9 1 0 0 1 2 7 12 4 0 2 32 7 218 105 4 13 16 39 1 0 301 377
CIN
-0 -0 -0 -0 -0 -0 -0 -0 -0 -0 -0 -0 -0 -0 -0 -0 -0 -0 -0 -0 -0 -0 -0 -0 -55 -15 -269 -225 -248 -101 -163 -230 -161 -208 -210 -108 -95 -46 -54 -42 -43 -65 -100 -117
-0 -0 -0 -0 -0 -0 -0 -0 -0 -0 -0 -0 -0 -0 -0 -0 -0 -0 -0 -0 -0 -0 -0 -20 -0 -0 -195 -177 -238 -249 -142 -178 -195 -379 -333 -183 -200 -148 -145 -86 -40 -43 -63 -104
-0 -0 -0 -0 -0 -0 -0 -0 -0 -0 -0 -0 -0 -0 -0 -0 -0 -0 -0 -0 -0 -0 -0 -18 -0 -0 -157 -206 -261 -323 -318 -359 -238 -217 -492 -409 -393 -375 -230 -253 -222 -51 -32 -113
-0 -0 -0 -0 -0 -0 -0 -0 -0 -0 -0 -0 -0 -0 -0 -0 -0 -1 -0 -0 -0 -0 -0 -13 -32 -3 -167 -19 -322 -352 -292 -57 -0 -145 -196 -309 -282 -319 -276 -0 -281 -162 -26 -49
-0 -0 -0 -0 -0 -0 -0 -0 -0 -0 -0 -0 -0 -0 -0 -0 -0 -0 -2 -4 -0 -0 -0 -0 -0 -0 -0 -0 -0 -162 -213 -154 -199 -165 -195 -155 -194 -228 -286 -274 -321 -209 -143 -101
-0 -0 -0 -0 -0 -0 -0 -0 -0 -0 -0 -0 -0 -0 -0 -0 -3 -0 -1 -0 -0 -0 -0 -0 -0 -0 -0 -0 -0 -63 -74 -42 -86 -108 -184 -221 -110 -143 -220 -295 -176 -258 -280 -166
-0 -0 -0 -0 -0 -0 -0 -0 -0 -0 -0 -0 -2 -3 -12 -36 -0 -4 -17 -0 -0 -0 -0 -0 -2 -8 -13 -10 -3 -4 -103 -23 -8 -21 -60 -127 -118 -112 -114 -157 -205 -169 -0 -125
-0 -0 -0 -0 -6 -4 -1 -0 -0 -1 -0 -3 -0 -26 -107 -51 -8 -0 -0 -2 -0 -0 -0 -0 -1 -5 -0 -3 -30 -15 -5 -4 -7 -27 -21 -40 -29 -84 -157 -175 -194 -224 -139 -22
-0 -0 -2 -2 -2 -2 -0 -0 -5 -0 -3 -10 -15 -16 -0 -9 -10 -21 -0 -0 -0 -0 -0 -0 -3 -13 -3 -5 -12 -11 -19 -9 -4 -20 -27 -21 -49 -24 -119 -123 -107 -106 -106 -152
-0 -0 -0 -0 -3 -2 -3 -14 -0 -0 -1 -0 -4 -1 -0 -28 -12 -30 -0 -0 -0 -0 -0 -0 -2 -7 -4 -11 -12 -19 -16 -15 -28 -20 -11 -0 -73 -34 -75 -90 -140 -168 -193 -233
-1 -0 -0 -1 -1 -0 -1 -7 -0 -2 -1 -0 -0 -9 -77 -38 -4 -11 -5 -0 -1 -1 -1 -0 -2 -1 -1 -5 -2 -16 -23 -19 -14 -33 -41 -39 -9 -3 -67 -69 -117 -91 -127 -191
-1 -0 -0 -1 -8 -11 -4 -6 -11 -0 -1 -18 -0 -52 -36 -23 -17 -31 -9 -4 -14 -26 -0 -2 -1 -4 -1 -4 -3 -9 -12 -9 -7 -11 -17 -16 -86 -7 -18 -34 -65 -42 -64 -66
-1 -0 -0 -0 -0 -7 -76 -1 -9 -30 -21 -0 -0 -27 -14 -12 -124 -7 -77 -0 -58 -0 -1 -2 -9 -26 -5 -2 -3 -1 -6 -6 -6 -12 -6 -20 -22 -19 -10 -13 -23 -35 -38 -50
-43 -4 -0 -0 -0 -3 -9 -6 -8 -19 -0 -0 -0 -0 -6 -7 -55 -54 -21 -63 -0 -1 -0 -4 -3 -20 -15 -6 -5 -4 -4 -12 -12 -1 -1 -17 -10 -7 -0 -17 -28 -10 -36 -8
-21 -0 -0 -0 -1 -0 -0 -1 -1 -12 -44 -0 -6 -1 -7 -0 -1 -4 -78 -21 -18 -1 -3 -0 -12 -1 -4 -15 -11 -2 -4 -4 -13 -41 -36 -3 -16 -14 -0 -2 -5 -13 -2 -1
-50 -0 -0 -0 -0 -0 -0 -0 -0 -0 -0 -6 -0 -5 -7 -2 -0 -0 -0 -1 -1 -9 -6 -1 -3 -2 -2 -7 -6 -17 -0 -16 -13 -6 -10 -23 -17 -0 -0 -9 -0 -0 -0 -2
-0 -0 -0 -0 -0 -0 -8 -14 -6 -1 -4 -0 -1 -33 -51 -110 -19 -20 -62 -37 -74 -23 -18 -5 -1 -13 -16 -44 -49 -39 -6 -16 -18 -11 -6 -11 -8 -11 -0 -0 -0 -0 -0 -4
-0 -0 -0 -0 -0 -0 -14 -4 -3 -0 -2 -11 -56 -7 -53 -35 -37 -16 -3 -18 -2 -0 -6 -26 -27 -3 -2 -6 -22 -53 -38 -8 -2 -2 -2 -2 -12 -21 -27 -9 -1 -6 -0 -0
-0 -0 -0 -0 -2 -0 -0 -30 -22 -26 -0 -23 -5 -3 -30 -20 -2 -6 -3 -3 -36 -35 -20 -53 -17 -10 -11 -13 -33 -16 -29 -36 -12 -9 -26 -21 -17 -56 -14 -3 -4 -2 -0 -0
-9 -16 -0 -0 -0 -0 -4 -51 -16 -9 -0 -6 -1 -0 -0 -2 -1 -0 -28 -76 -3 -44 -38 -0 -0 -0 -0 -2 -14 -11 -11 -21 -18 -88 -94 -73 -65 -72 -57 -3 -3 -7 -0 -0
-1 -0 -0 -3 -0 -10 -1 -0 -0 -0 -0 -22 -17 -2 -0 -0 -0 -1 -0 -0 -1 -0 -0 -0 -3 -0 -5 -6 -14 -0 -0 -0 -19 -94 -22 -61 -60 -32 -3 -5 -2 -1 -0 -0
-8 -0 -0 -0 -0 -0 -19 -6 -6 -0 -0 -0 -0 -0 -1 -7 -6 -0 -0 -0 -0 -0 -0 -0 -0 -2 -1 -8 -0 -0 -0 -0 -25 -33 -14 -15 -4 -3 -1 -1 -2 -4 -0 -0
-0 -1 -0 -0 -0 -0 -0 -0 -1 -0 -0 -0 -0 -0 -0 -0 -0 -0 -0 -0 -0 -0 -0 -0 -0 -0 -0 -3 -0 -0 -1 -7 -11 -12 -2 -1 -1 -1 -0 -0 -1 -0 -0 -0
-0 -0 -0 -4 -1 -0 -0 -0 -0 -0 -0 -0 -0 -0 -0 -0 -0 -0 -0 -0 -0 -0 -0 -0 -0 -0 -1 -0 -1 -0 -2 -8 -3 -0 -0 -0 -0 -0 -0 -0 -1 -0 -0 -0
-0 -0 -0 -0 -0 -0 -0 -0 -0 -0 -0 -0 -0 -0 -0 -0 -0 -0 -0 -0 -0 -0 -0 -0 -0 -0 -0 -0 -0 -0 -5 -6 -0 -0 -0 -0 -0 -0 -0 -1 -0 -0 -83 -11
-0 -0 -0 -0 -0 -0 -0 -0 -0 -0 -0 -0 -0 -0 -0 -0 -0 -0 -0 -0 -0 -0 -0 -0 -0 -0 -0 -0 -0 -0 -0 -2 -0 -0 -0 -4 -0 -0 -0 -0 -5 -0 -42 -51
Wind_Speed
14 12 13 16 17 18 16 17 17 21 21 17 16 17 14 14 18 20 15 17 17 15 14 13 6 8 7 6 4 4 6 3 4 7 5 2 3 3 3 4 7 6 5 6
14 14 15 16 16 18 14 17 19 20 20 18 20 22 18 19 20 20 20 18 13 14 15 14 14 12 8 6 5 1 3 6 3 4 3 2 1 2 3 1 3 8 8 7
16 16 17 9 15 16 15 17 19 21 20 22 21 20 19 25 26 26 23 19 16 14 15 15 19 15 11 8 4 4 1 3 2 3 2 3 1 1 3 2 3 5 5 9
16 16 16 16 12 14 17 16 17 17 18 15 16 17 20 21 22 18 12 13 15 12 8 7 14 15 11 5 7 3 2 3 3 3 3 6 4 3 2 4 4 6 8 8
17 16 17 17 15 16 19 16 16 20 20 21 21 15 18 21 22 21 18 18 9 6 7 10 6 4 7 5 2 6 4 2 1 4 2 2 3 3 3 4 6 5 6 6
22 21 23 22 20 16 18 16 17 18 18 17 24 22 21 18 20 17 14 14 12 7 10 11 11 10 5 7 10 6 4 4 4 5 3 6 5 4 3 3 4 3 4 9
22 24 25 23 25 22 21 17 14 17 14 15 22 14 11 15 2 12 14 11 11 9 9 8 9 13 12 13 8 5 7 7 7 6 6 6 6 6 7 4 5 7 4 7
20 20 20 17 16 19 21 18 11 16 15 17 22 7 12 12 17 10 5 14 6 5 8 10 11 11 11 7 10 9 5 6 6 6 6 6 7 5 4 6 6 6 7 8
19 26 22 19 17 14 17 19 18 18 13 12 17 27 22 20 22 11 8 7 8 6 7 7 5 1 6 8 8 8 8 6 4 6 8 6 6 6 6 8 6 6 8 9
16 22 20 21 21 17 16 16 15 9 7 18 16 19 11 18 10 11 8 9 7 7 9 8 8 10 7 7 8 9 10 11 10 10 7 7 8 8 7 8 10 10 10 8
16 17 17 21 19 21 13 18 18 16 13 16 17 15 4 3 2 12 11 10 10 9 11 9 10 10 11 7 12 9 12 13 12 7 7 7 8 10 10 8 8 9 9 10
17 13 16 18 23 21 19 18 17 16 12 12 12 17 10 7 6 12 16 8 11 12 14 13 11 9 9 9 13 9 7 8 7 5 6 7 5 7 9 10 11 11 11 10
8 7 11 13 18 15 7 18 20 15 12 18 14 17 12 9 3 10 21 22 20 11 10 10 10 10 11 12 11 10 9 10 10 10 10 7 6 6 12 10 11 12 12 12
4 13 18 16 22 21 11 19 12 11 9 14 17 23 17 13 16 16 21 14 22 17 12 13 10 11 9 10 10 10 10 7 4 11 11 6 5 6 9 11 10 12 14 15
2 14 19 19 22 24 24 25 21 18 18 19 24 25 22 18 19 15 19 21 29 18 15 12 8 8 7 9 11 12 12 10 10 6 5 9 6 6 10 13 12 13 14 15
11 5 16 20 19 25 28 26 27 27 23 28 25 26 21 22 20 21 20 20 14 13 13 15 12 12 11 13 14 8 8 8 8 11 11 9 9 7 9 9 12 13 16 18
16 14 16 19 19 20 14 18 28 20 20 22 15 20 21 21 20 19 18 16 17 12 14 14 14 14 11 11 10 11 13 12 14 14 13 13 13 12 10 11 14 16 17 17
13 14 11 14 15 19 19 5 8 11 11 16 16 15 8 13 14 15 14 14 16 15 13 14 14 13 12 14 12 12 14 16 16 15 15 15 13 11 13 14 15 16 16 16
9 11 5 6 10 19 21 9 9 7 14 14 8 12 15 19 19 17 16 11 18 19 18 17 15 16 18 17 17 16 16 17 19 18 19 19 19 15 13 15 17 16 15 17
6 5 3 8 5 7 8 4 11 10 12 16 18 15 17 19 15 14 21 23 22 21 17 17 19 20 21 19 13 16 19 21 20 19 20 19 18 18 18 18 19 16 18 20
3 3 5 9 8 9 14 16 18 11 10 22 21 21 18 15 12 19 22 20 19 19 22 22 22 21 20 17 16 20 19 19 19 11 10 9 12 16 17 20 19 17 18 20
2 4 2 3 5 6 8 7 8 12 18 22 19 19 21 23 25 24 22 23 22 22 23 23 22 21 19 20 18 21 22 20 15 17 19 22 23 20 19 25 20 21 20 21
4 1 3 5 6 15 17 16 14 19 20 19 23 24 23 25 25 25 25 22 19 21 21 24 22 21 19 19 18 22 23 20 19 23 30 31 33 30 26 23 21 19 20 18
9 9 6 9 8 19 21 18 21 22 24 26 26 26 24 25 24 23 24 24 23 21 20 20 21 22 20 17 18 19 18 19 21 28 35 33 28 30 28 18 15 14 15 16
5 10 11 15 12 24 10 18 22 25 25 26 16 23 25 24 25 25 21 23 20 19 17 17 16 17 20 20 21 18 19 19 23 24 24 6 10 19 20 17 15 15 19 16
6 6 3 4 16 12 19 22 28 25 23 20 25 25 22 23 23 22 20 17 18 18 17 18 20 19 20 20 21 19 20 14 19 18 6 4 8 10 11 10 5 12 11 17
Wind_Direction
257 241 243 254 258 260 287 296 298 294 300 308 298 279 274 284 285 281 260 211 218 232 243 170 160 133 127 97 43 223 150 187 178 197 168 161 159 186 219 198 216 254 212 226
237 250 258 259 269 285 296 284 280 283 280 279 278 273 277 276 271 268 268 267 244 224 226 182 172 159 157 153 154 47 187 140 251 223 139 131 245 215 185 77 204 232 196 196
262 275 293 280 287 285 261 263 272 278 286 288 290 284 279 265 252 249 247 250 252 245 236 206 176 164 159 156 182 193 125 18 180 306 165 103 327 295 332 239 241 238 202 190
270 283 276 292 261 270 271 276 286 294 289 280 286 283 282 287 291 274 231 235 233 230 238 266 170 151 149 177 157 259 229 136 326 313 281 136 199 190 186 260 235 240 231 223
266 265 277 256 247 271 281 292 296 296 288 288 269 266 277 267 258 246 237 204 203 230 201 132 140 183 172 170 263 182 236 299 281 295 321 270 185 235 187 231 251 257 288 261
276 278 279 272 275 259 256 290 277 273 273 260 263 256 261 258 268 258 214 160 169 179 189 185 190 172 158 227 208 203 194 210 227 263 261 299 272 240 235 231 286 273 250 256
261 256 242 242 255 247 253 247 264 257 248 252 259 284 320 302 242 319 133 146 168 189 205 200 182 171 189 209 193 215 208 232 196 194 225 231 266 267 276 252 238 250 219 263
271 272 274 294 273 257 258 247 254 271 279 281 287 218 266 309 316 237 182 176 168 186 251 214 201 192 209 209 181 199 223 246 236 240 213 200 211 231 254 257 252 255 265 252
295 288 295 264 280 268 251 240 260 283 311 288 278 276 276 232 230 241 228 184 241 209 234 255 190 263 248 250 206 187 191 228 242 245 270 268 233 224 220 228 247 257 237 236
284 293 292 297 294 262 276 292 274 257 263 269 268 283 299 343 166 232 226 239 227 195 218 240 231 223 230 247 257 196 198 203 214 228 219 252 275 255 239 235 235 240 252 263
276 275 279 285 272 271 253 236 269 263 241 252 266 269 151 262 173 214 258 202 216 222 229 249 242 234 243 262 247 222 205 213 207 203 217 234 243 269 283 272 267 258 250 256
297 305 288 264 288 293 271 273 256 258 248 232 285 278 133 243 46 315 292 253 243 232 237 245 260 269 278 263 259 246 222 228 216 219 234 239 283 294 261 266 271 273 263 252
310 232 283 293 290 265 8 321 310 323 324 267 261 263 257 181 211 314 296 317 335 266 246 262 271 276 255 252 255 256 240 233 225 220 223 203 212 260 264 252 266 276 276 275
336 283 269 270 278 293 300 278 260 243 289 295 268 281 288 280 208 199 240 285 287 269 262 260 257 262 262 261 267 269 267 263 250 225 256 221 220 239 279 289 273 253 261 262
289 265 261 272 298 298 289 288 277 230 236 249 269 271 277 279 287 263 220 226 257 265 267 275 280 278 280 282 280 262 259 256 254 244 191 248 230 247 242 259 265 281 265 261
168 227 267 274 276 272 279 289 274 271 250 238 265 274 278 271 266 267 276 284 306 331 287 264 253 259 260 242 248 245 264 297 274 254 254 257 253 254 266 270 278 277 278 273
289 291 291 288 291 300 291 271 276 284 306 287 296 336 349 347 313 330 353 338 314 284 283 309 312 317 328 319 319 324 305 276 264 252 248 247 243 238 252 268 276 268 266 271
258 266 278 284 291 273 277 313 330 296 303 356 328 331 320 274 294 308 313 283 260 304 324 319 312 305 290 281 286 281 278 274 266 257 253 252 248 240 247 254 251 260 267 267
258 257 297 262 267 279 287 17 354 21 305 325 343 345 333 320 317 294 274 304 333 326 321 319 313 303 293 281 277 271 266 263 258 246 245 244 242 233 235 250 250 248 258 266
73 38 217 258 273 285 41 118 260 248 258 2 347 330 312 324 307 304 335 325 319 312 303 300 294 290 285 280 278 270 266 261 251 249 247 242 234 236 239 243 246 250 255 256
200 187 218 244 243 273 29 351 331 279 330 330 329 317 321 312 297 305 307 306 302 305 300 296 290 287 293 292 286 284 286 285 285 272 269 265 236 228 235 244 239 240 246 250
174 293 252 220 247 269 22 352 7 313 327 329 317 318 316 316 313 306 303 301 303 301 300 300 299 298 300 295 291 288 284 284 276 273 263 250 244 241 244 234 231 240 239 237
16 25 269 288 313 316 5 353 345 338 320 321 319 315 312 308 300 302 304 296 300 306 308 300 296 291 289 296 296 290 285 286 290 289 272 256 241 224 218 221 226 226 225 223
323 337 305 323 330 333 340 341 340 334 322 316 311 314 320 313 311 303 306 306 300 297 297 302 298 291 292 289 289 288 302 296 284 274 277 277 263 204 193 199 209 224 214 211
354 309 341 300 315 335 316 331 323 316 309 306 317 311 300 294 295 298 297 295 300 302 300 295 303 304 299 298 292 290 284 280 279 279 288 350 70 127 165 191 206 213 214 204
11 18 330 283 315 302 298 308 307 308 312 319 313 310 308 306 304 297 294 299 300 299 302 297 290 289 289 289 286 290 272 260 271 289 292 128 106 124 156 174 151 24 215 174